HELLAS-SAT 3

Last updated on Tue Sep 22 2026 00:03:14 GMT+0000 (Coordinated Universal Time)

1 42814U 17040A 26264.06916883 .00000148 00000+0 00000+0 0 9993 2 42814 0.0635 39.2545 0001715 63.1183 321.4982 1.00270764 33764
UTC large
Height (km)
Speed (km/s)
/
Latitude / Longitude
Inclination (degrees)
Orbital Period (minutes)
Azimuth
Elevation
Range (km)
Doppler Factor

Next 0 passes for location: London (51.5072 / 0.1276)

No passes found over London.
HELLAS-SAT 3